Hauptseite
METAR-TAF:

METAR-TAF

Flughäfen :

Heeresflugplatz Niederstetten

Niederstetten, Deutschland

Breite: 49-24N, Länge: 009-58E, Höhe: 468 m

Beobachtung

Neuester Wetterbericht von vor 25 Minuten, um 04:20 UTC
Wind 2 kt aus Südost
Temperatur 2°C
Luftfeuchtigkeit 80%
Luftdruck 1025 hPa
Sichtweite 10 km oder mehr
Aufgelockert bewölkt in der Höhe von 38000 ft

METAR: ETHN 170420Z 14002KT 9999 SCT380 02/M01 Q1025 BLU+

Zeit: 05:45 (04:45 UTC)


TAF: fehlend

Wetterbeobachtungen und Prognosen von mehr als 4000 Flughäfen (METAR und TAF Bericht).

Die verfügbaren Stationen werden durch gelbe und rote Markierungen auf der Karte dargestellt.

Führen Sie die Maus auf sie, um den Namen der Station zu sehen.

Darauf klicken, um die Beobachtung von Wetterbeobachtungen und Prognosen zu sehen.

Um die Karte zu ändern : klicken Sie auf den grünen Tasten mit einem schwarzen Kreuz Zum Vergrößern, auf den grünen Button mit einem Gedankenstrich zu verkleinern, oder auf die grünen Pfeile für benachbarte Karten.


METAR-TAF: